[[{"header":{"parameterUnit":"m.s-1","parameterCategory":1,"la1":30.2991,"la2":30.254,"lo1":-89.0895,"lo2":-89.0444,"dy":0.0017,"dx":0.0017,"nx":28,"ny":28,"refTime":"2024-08-01T21:00:00:Z","depth":0,"parameterNumber":2,"parameterNumberName":"U-component_of_WINDS"},"data":[0,0,0,0,0,0,0,0,0,0,0,0,0,0,0,0,0,0,0,0,0,0,0,0,0,0,0,0,0,0,0,0,0,0,0,0,0,0,0,0,0,0,0,0,0,0,0,0,0,0,0,0,0,0,0,0,0,0,2.262,2.262,0,2.2664,2.2665,2.2665,2.2668,2.2668,2.2667,2.2667,2.2714,2.2716,2.2718,0,0,0,0,0,0,0,0,0,0,0,0,0,2.2542,2.2544,2.262,2.262,2.2621,2.2664,2.2665,2.2665,2.2668,2.2668,2.2667,2.2666,2.2714,2.2716,2.2718,0,0,0,0,0,0,0,0,0,0,0,0,0,2.258,2.2544,2.262,2.2628,2.2629,2.2664,2.2665,2.2665,2.2668,2.2668,2.2667,2.2666,2.2713,2.2715,2.2718,2.2749,0,0,2.2726,2.2727,0,0,0,0,0,0,0,0,2.2578,2.2583,2.2626,2.2627,2.2628,2.266,2.2655,2.2694,2.2668,2.2653,2.2667,2.2666,2.2697,2.2701,2.2711,2.2751,2.2753,2.2726,2.2728,2.2729,2.273,0,0,0,0,0,0,0,2.2576,2.2581,2.2637,2.2627,2.2628,2.263,2.2635,2.2662,2.2679,2.2655,2.2655,2.266,2.2697,2.2708,2.2712,2.2754,2.2726,2.2728,2.273,2.2731,2.2827,2.2828,0,0,0,0,0,0,2.2571,2.2579,2.2636,2.2639,2.2601,2.2632,2.2637,2.2651,2.2679,2.2682,2.2661,2.266,2.2704,2.2709,2.2714,2.2755,2.2729,2.2731,2.2733,2.2826,2.2827,2.2828,0,0,0,0,0,0,2.2569,2.2576,2.2634,2.2609,2.2617,2.2634,2.2649,2.2652,2.2663,2.2683,2.2686,2.2668,2.2704,2.271,2.2741,2.2756,2.2732,2.2735,2.2825,2.2826,2.2828,2.2835,0,0,0,0,0,0,2.2567,2.2575,2.2586,2.2609,2.2618,2.266,2.265,2.2653,2.2667,2.2666,2.2691,2.2695,2.2704,2.2737,2.2744,2.2759,2.2737,2.2823,2.2825,2.2827,2.2833,2.2837,2.2839,0,0,0,0,0,2.2564,2.2586,2.2587,2.2593,2.2632,2.266,2.2666,2.2675,2.2668,2.268,2.2694,2.2694,2.2753,2.274,2.2748,2.2764,2.2822,2.2825,2.2827,2.2832,2.2836,2.2839,0,0,0,0,0,0,2.2564,2.2589,2.259,2.262,2.2638,2.2661,2.2676,2.2678,2.2699,2.2698,2.2709,2.2715,2.2746,2.2758,2.2743,2.2798,2.2787,2.2791,2.2789,2.2793,2.2795,2.2792,2.2739,0,0,0,0,0,2.2567,2.2588,2.2609,2.2633,2.2642,2.2658,2.267,2.2676,2.2696,2.2704,2.272,2.274,2.2763,2.2778,2.2801,2.2835,2.2842,2.2851,2.2853,2.2856,2.2859,2.2882,2.2887,2.2835,2.2835,2.2835,0,0,2.2575,2.2591,2.2603,2.2634,2.2648,2.2671,2.2664,2.2687,2.2705,2.2708,2.2738,2.2751,2.2774,2.2808,2.2824,2.2819,2.2875,2.2858,2.286,2.2862,2.2885,2.289,2.2894,2.2837,2.2837,2.2836,0,0,2.26,2.2613,2.2636,2.2652,2.2674,2.2685,2.2691,2.2714,2.2723,2.2754,2.2757,2.2779,2.2818,2.2836,2.285,2.2885,2.2887,2.2892,2.2907,2.2929,2.2933,2.2937,2.2953,2.2958,2.2896,2.2896,2.2896,0,2.2606,2.2639,2.2648,2.2672,2.2687,2.2691,2.2716,2.2731,2.276,2.2771,2.2765,2.2817,2.2832,2.2872,2.2881,2.2891,2.2901,2.289,2.2932,2.2936,2.2939,2.2954,2.296,2.2896,2.2896,2.2896,2.2896,0,2.2647,2.267,2.2686,2.2715,2.2731,2.2755,2.277,2.2786,2.2792,2.2804,2.2837,2.2857,2.2885,2.2894,2.2899,2.2936,2.2933,2.2929,2.2919,2.2945,2.2959,2.2965,2.2897,2.2897,2.2897,2.2897,0,0,2.2671,2.2707,2.2713,2.2727,2.2754,2.2773,2.2799,2.2826,2.2841,2.2862,2.2886,2.2921,2.2919,2.2935,2.2942,2.2961,2.2992,2.2956,2.2957,2.2964,2.3037,2.3041,2.3047,2.2993,2.2994,2.2995,2.3036,0,2.2701,2.2746,2.2757,2.2796,2.282,2.2826,2.2849,2.2869,2.2882,2.2905,2.2919,2.2945,2.2938,2.2949,2.2968,2.2984,2.3007,2.2981,2.3018,2.3019,2.3013,2.3054,2.3057,2.3095,2.3042,2.3043,2.3043,0,2.274,2.2763,2.2805,2.2833,2.2843,2.2863,2.2891,2.2912,2.2937,2.2945,2.2964,2.2971,2.3001,2.2989,2.3032,2.3014,2.303,2.3041,2.3043,2.3047,2.3034,2.3062,2.3107,2.3113,2.3052,2.3051,2.305,0,2.2757,2.2798,2.283,2.2842,2.2873,2.2888,2.2902,2.2926,2.2943,2.2968,2.298,2.3008,2.3024,2.3046,2.3061,2.305,2.3104,2.3093,2.3114,2.3114,2.3126,2.3125,2.3176,2.3133,2.3133,2.3133,2.3133,0,2.279,2.2816,2.2838,2.2857,2.2888,2.2901,2.2932,2.2946,2.2968,2.2992,2.2999,2.3022,2.3039,2.3065,2.3077,2.3113,2.3119,2.3129,2.3132,2.3129,2.3128,2.314,2.3139,2.3134,2.3134,2.3134,2.3134,0,2.2813,2.2829,2.2864,2.2892,2.29,2.2922,2.2946,2.2967,2.2981,2.3011,2.302,2.3042,2.3073,2.309,2.3129,2.3137,2.3178,2.3179,2.317,2.3172,2.3193,2.3192,2.3255,2.3265,2.3214,2.3214,2.3215,0,2.2833,2.2854,2.2885,2.2902,2.2916,2.2942,2.2961,2.2975,2.2994,2.3026,2.3043,2.3075,2.3101,2.3152,2.3172,2.3203,2.3206,2.3226,2.3211,2.3209,2.321,2.3209,2.3213,2.3229,2.323,2.323,2.323,0,2.2869,2.2876,2.2901,2.2931,2.2952,2.2975,2.2999,2.3013,2.3032,2.3053,2.3085,2.3106,2.3147,2.318,2.3213,2.3229,2.3234,2.3235,2.3242,2.324,2.3235,2.3241,2.3179,2.3234,2.3233,2.3233,2.3233,2.3233,2.2893,2.2913,2.2939,2.2968,2.2987,2.301,2.3031,2.3049,2.3076,2.311,2.3118,2.3153,2.318,2.3226,2.3244,2.3273,2.3269,2.3278,2.3281,2.3284,2.3286,2.3229,2.3279,2.3278,2.3278,2.3278,2.3278,0,2.293,2.2948,2.2975,2.3008,2.3032,2.3034,2.3061,2.3081,2.3112,2.3137,2.3163,2.3202,2.3235,2.3259,2.3293,2.3312,2.3316,2.3321,2.332,2.3325,2.3286,2.3278,2.3318,2.3318,2.3318,2.3318,2.3318,2.3318,2.2953,2.2988,2.2999,2.3045,2.3063,2.3097,2.3113,2.3135,2.3155,2.3199,2.3226,2.3242,2.3268,2.3304,2.3335,2.3342,2.3355,2.3361,2.3368,2.3331,2.3327,2.3323,2.3316,2.3363,2.3363,2.3405,2.3405,2.3405]},{"header":{"parameterUnit":"m.s-1","parameterCategory":1,"la1":30.2991,"la2":30.254,"lo1":-89.0895,"lo2":-89.0444,"dy":0.0017,"dx":0.0017,"nx":28,"ny":28,"refTime":"2024-08-01T21:00:00:Z","depth":0,"parameterNumber":3,"parameterNumberName":"V-component_of_WINDS"},"data":[0,0,0,0,0,0,0,0,0,0,0,0,0,0,0,0,0,0,0,0,0,0,0,0,0,0,0,0,0,0,0,0,0,0,0,0,0,0,0,0,0,0,0,0,0,0,0,0,0,0,0,0,0,0,0,0,0,0,1.1427,1.1428,0,1.149,1.1491,1.1492,1.147,1.1469,1.1467,1.1466,1.1531,1.1534,1.1537,0,0,0,0,0,0,0,0,0,0,0,0,0,1.1285,1.1288,1.1427,1.1428,1.1428,1.149,1.1491,1.1492,1.147,1.1468,1.1467,1.1465,1.153,1.1534,1.1537,0,0,0,0,0,0,0,0,0,0,0,0,0,1.1347,1.1289,1.1427,1.1425,1.1425,1.149,1.1491,1.1492,1.1471,1.1468,1.1466,1.1464,1.1529,1.1533,1.1538,1.1608,0,0,1.1552,1.1554,0,0,0,0,0,0,0,0,1.1344,1.1353,1.1424,1.1425,1.1426,1.147,1.1465,1.1531,1.1471,1.1453,1.1466,1.1463,1.1512,1.1518,1.1535,1.1611,1.1614,1.1552,1.1555,1.1557,1.1558,0,0,0,0,0,0,0,1.134,1.135,1.1452,1.1425,1.1426,1.142,1.1427,1.1477,1.1494,1.1455,1.1453,1.1461,1.1512,1.153,1.1536,1.1615,1.1552,1.1556,1.1559,1.1561,1.1747,1.1749,0,0,0,0,0,0,1.1335,1.1346,1.145,1.1454,1.1379,1.1425,1.1432,1.1458,1.1493,1.1497,1.1463,1.146,1.1524,1.1531,1.1538,1.162,1.1557,1.1561,1.1564,1.1745,1.1748,1.175,0,0,0,0,0,0,1.1332,1.1344,1.1447,1.14,1.1412,1.1429,1.1459,1.146,1.1478,1.1499,1.1502,1.1478,1.1522,1.1532,1.159,1.1622,1.1563,1.1567,1.1742,1.1746,1.1749,1.1785,0,0,0,0,0,0,1.1328,1.1344,1.1371,1.14,1.1415,1.1498,1.1461,1.1463,1.1486,1.1483,1.1515,1.1518,1.1521,1.1583,1.1594,1.1627,1.1571,1.1739,1.1744,1.1748,1.1781,1.1789,1.1796,0,0,0,0,0,1.1323,1.138,1.1373,1.1385,1.145,1.15,1.1509,1.1512,1.1489,1.1516,1.1529,1.1517,1.1617,1.1589,1.1602,1.1636,1.1737,1.1743,1.1747,1.1778,1.1787,1.1796,0,0,0,0,0,0,1.1355,1.1384,1.1376,1.1444,1.147,1.1497,1.1531,1.1523,1.1556,1.1551,1.1553,1.1561,1.1619,1.1634,1.1603,1.1704,1.1674,1.1681,1.1692,1.1702,1.1709,1.1704,1.1575,0,0,0,0,0,1.1369,1.1408,1.1432,1.1489,1.1502,1.1514,1.1537,1.1536,1.1563,1.1574,1.1592,1.1618,1.1655,1.1679,1.1715,1.1783,1.1788,1.1813,1.182,1.1826,1.1833,1.1866,1.1877,1.1766,1.1766,1.1766,0,0,1.14,1.1421,1.1446,1.1496,1.1516,1.1555,1.1524,1.1568,1.1596,1.1581,1.1636,1.1649,1.1679,1.1741,1.1769,1.1755,1.1864,1.1833,1.1837,1.184,1.1872,1.1883,1.1892,1.177,1.1769,1.1769,0,0,1.1476,1.1497,1.1545,1.1565,1.1595,1.1603,1.1614,1.1642,1.165,1.1705,1.1693,1.1727,1.1792,1.1812,1.1831,1.1911,1.19,1.1923,1.1962,1.1994,1.2003,1.2011,1.2037,1.2046,1.1929,1.1929,1.1929,0,1.1511,1.157,1.1572,1.1615,1.1636,1.1623,1.1671,1.1691,1.1731,1.1745,1.1729,1.1807,1.1826,1.1891,1.191,1.1927,1.1938,1.1919,1.2002,1.2009,1.2016,1.2041,1.2051,1.1931,1.1931,1.1931,1.1931,0,1.161,1.1651,1.1686,1.1724,1.1749,1.1795,1.1802,1.1827,1.1824,1.1833,1.1887,1.1909,1.1947,1.1963,1.1961,1.2027,1.2016,1.2001,1.197,1.2029,1.2052,1.2062,1.1935,1.1934,1.1933,1.1933,0,0,1.1709,1.1744,1.1757,1.1772,1.1803,1.1835,1.1879,1.1915,1.1935,1.1963,1.1998,1.2052,1.2036,1.2058,1.2058,1.2087,1.2145,1.2067,1.2067,1.2078,1.2215,1.2225,1.2237,1.2138,1.214,1.2141,1.2212,0,1.1785,1.1862,1.1863,1.1934,1.197,1.1956,1.1994,1.2016,1.2025,1.2056,1.2066,1.2102,1.2081,1.2093,1.2121,1.2132,1.2172,1.2127,1.2169,1.2171,1.2161,1.2249,1.2261,1.2326,1.2221,1.2223,1.2224,0,1.1885,1.1914,1.1988,1.201,1.2025,1.2059,1.2091,1.2122,1.2146,1.2149,1.2172,1.2166,1.2209,1.2178,1.2236,1.2205,1.2222,1.223,1.2233,1.2235,1.22,1.2252,1.2348,1.2357,1.2239,1.2238,1.2237,0,1.1946,1.2004,1.2054,1.2068,1.2097,1.212,1.2133,1.2155,1.2176,1.2203,1.2216,1.2249,1.2266,1.2291,1.2294,1.2271,1.2351,1.2321,1.2354,1.2354,1.2371,1.2369,1.2468,1.2385,1.2385,1.2385,1.2385,0,1.2031,1.2075,1.2082,1.2113,1.2161,1.2162,1.221,1.2221,1.224,1.2271,1.2263,1.2292,1.2295,1.2326,1.2328,1.2374,1.2383,1.2386,1.2386,1.2386,1.2385,1.2396,1.2391,1.2388,1.2387,1.2386,1.2386,0,1.2107,1.2113,1.2167,1.2188,1.2194,1.2229,1.2247,1.2276,1.2282,1.2322,1.2332,1.2342,1.2377,1.2383,1.2424,1.2426,1.248,1.2476,1.2471,1.247,1.2502,1.2498,1.261,1.2623,1.2534,1.2534,1.2535,0,1.2159,1.2193,1.2217,1.2237,1.2251,1.2284,1.2304,1.2305,1.2327,1.2355,1.238,1.2413,1.244,1.2496,1.2507,1.2538,1.2533,1.257,1.2538,1.2535,1.2531,1.2528,1.253,1.2576,1.2577,1.2578,1.2578,0,1.2251,1.2251,1.2281,1.2311,1.2335,1.2359,1.2382,1.2399,1.2402,1.2426,1.2461,1.2482,1.2523,1.2555,1.2585,1.2597,1.2588,1.2588,1.2597,1.2597,1.2591,1.2592,1.2486,1.2586,1.2585,1.2585,1.2584,1.2584,1.2315,1.2343,1.2364,1.2396,1.2413,1.2433,1.246,1.2469,1.2498,1.2531,1.253,1.2567,1.2588,1.2626,1.264,1.2669,1.2657,1.267,1.2673,1.2676,1.2678,1.2588,1.2675,1.2675,1.2674,1.2674,1.2674,0,1.2404,1.2416,1.2445,1.2476,1.2501,1.2489,1.2513,1.2534,1.2567,1.2587,1.2613,1.2651,1.2682,1.2694,1.2724,1.2744,1.274,1.2752,1.275,1.2752,1.2689,1.2677,1.2754,1.2754,1.2754,1.2754,1.2754,1.2754,1.2453,1.2498,1.2501,1.2554,1.2565,1.2602,1.2616,1.2634,1.2649,1.2692,1.2717,1.2725,1.2741,1.2771,1.2798,1.2801,1.2811,1.2824,1.2825,1.2765,1.2757,1.2749,1.2738,1.2827,1.2827,1.2885,1.2886,1.2886]}]]